Location: Newark
(48.1500°N, 13.1167°E)
Time: 17:06:49
(UTC+00:00)

XW-2D - Pass Details

Date: 10 December 2021
Orbit: 502 x 522 km, 97.5° (Epoch: 17 January)

Event Time Altitude Azimuth Distance (km) Brightness Sun altitude
Rises 04:13:52 0° 27° (NNE) 2,667 ? -24.4°
Reaches altitude 10° 04:16:30 10° 46° (NE) 1,771 ? -24.0°
Maximum altitude 04:19:13 18° 92° (E) 1,315 ? -23.6°
Drops below altitude 10° 04:21:55 10° 137° (SE) 1,755 ? -23.1°
Sets 04:24:30 0° 157° (SSE) 2,634 ? -22.7°
